Flag for U.S.A. Weather past 2 weeks in Manassas, Virginia, U.S.A.

Now
73 °F

Sunny.


Feels Like: 74 °F
Forecast: 65 / 89 °F
Wind: 6 mph from Southwest

Location: Manassas Municipal

Current Time: Aug 3, 2015 at 9:59:46 AM

Latest Report: Aug 3, 2015 at 8:45 AM


Visibility: 10 mi

Pressure: 29.89 "Hg

Humidity: 78%

Dew point: 66 °F

Location of ManassasLocation

Historic Weather in Manassas — Graph

°F

Manassas temperature yesterday

Maximum temperature yesterday: 86 °F (at 12:50 PM)
Minimum temperature yesterday: 63 °F (at 4:15 AM)
Average temperature yesterday: 70 °F

Past Weeks' High & Low Weather Summary

 TemperatureHumidityPressure
High93 °F (Jul 19, 3:45 PM)100% (Jul 19, 7:45 AM)30.03 "Hg (Jul 19, 7:45 AM)
Low61 °F (Jul 24, 4:35 AM)33% (Jul 24, 1:45 PM)29.65 "Hg (Jul 21, 5:45 PM)
Average74 °F83%29.92 "Hg
* Reported Jul 19 7:45 AM — Aug 3 7:55 AM, Manassas, Weather by CustomWeather, © 2015

Note: Actual official high and low records may vary slightly from our data, if they occured in-between our weather recording intervals... More about our weather records

Advertising

Manassas weather history for previous 24 hours

 ConditionsComfort  
Time TempWeatherWind HumidityBarometerVisibility
7:55 AM
Mon, Aug 3
68 °FSunny.5 mph88%29.89 "Hg10 mi
6:30 AM63 °FClear.3 mph100%29.88 "Hg10 mi
6:15 AM63 °FClear.5 mph100%29.87 "Hg10 mi
5:35 AM63 °FClear.No wind100%29.87 "Hg10 mi
5:15 AM63 °FClear.No wind94%29.87 "Hg10 mi
4:55 AM64 °FClear.No wind94%29.88 "Hg10 mi
4:35 AM63 °FClear.No wind100%29.88 "Hg10 mi
4:15 AM63 °FClear.No wind100%29.88 "Hg10 mi
3:55 AM63 °FClear.No wind100%29.88 "Hg10 mi
3:35 AM64 °FClear.No wind100%29.88 "Hg10 mi
3:15 AM64 °FClear.No wind100%29.89 "Hg10 mi
2:55 AM64 °FClear.No wind94%29.89 "Hg10 mi
2:35 AM64 °FClear.No wind94%29.89 "Hg10 mi
2:15 AM64 °FClear.No wind94%29.89 "Hg10 mi
1:55 AM64 °FClear.No wind100%29.90 "Hg10 mi
1:35 AM64 °FClear.3 mph94%29.90 "Hg10 mi
12:55 AM66 °FClear.No wind94%29.91 "Hg10 mi
12:15 AM66 °FClear.No wind94%29.91 "Hg10 mi
11:55 PM
Sun, Aug 2
66 °FClear.No wind100%29.91 "Hg10 mi
11:35 PM68 °FClear.3 mph94%29.91 "Hg10 mi
11:15 PM66 °FClear.No wind100%29.92 "Hg10 mi
10:55 PM68 °FClear.No wind94%29.92 "Hg10 mi
10:35 PM70 °FClear.No wind88%29.92 "Hg10 mi
9:45 PM68 °FClear.3 mph94%29.92 "Hg10 mi
8:45 PM73 °FSunny.No wind78%29.92 "Hg10 mi
6:45 PM82 °FSunny.7 mph48%29.92 "Hg10 mi
5:45 PM82 °FSunny.7 mph51%29.94 "Hg10 mi
4:55 PM84 °FSunny.5 mph45%29.94 "Hg10 mi
3:45 PM86 °FSunny.5 mph33%29.94 "Hg10 mi
2:45 PM86 °FSunny.5 mph35%29.96 "Hg10 mi
1:45 PM86 °FSunny.3 mph38%29.96 "Hg10 mi
12:50 PM86 °FSunny.5 mph35%29.98 "Hg10 mi
11:50 AM82 °FSunny.5 mph51%29.99 "Hg10 mi
10:45 AM79 °FSunny.No wind65%29.98 "Hg10 mi
9:55 AM75 °FSunny.No wind69%29.98 "Hg10 mi
Weather by CustomWeather, © 2015

See weather overviewHow to use our weather pages